Regional Weather Roundup
Issued by NWS

Home | Current Version | Previous Version | Text Only | Print | Product List | Glossary On
Versions: 1 2 3 4 5 6 7 8 9 10 11 12 13 14 15 16 17 18 19 20 21 22 23 24 25 26 27
000
ASUS42 KTBW 061017
RWRFL
FLORIDA REGIONAL WEATHER ROUNDUP
NATIONAL WEATHER SERVICE TAMPA BAY RUSKIN FL
500 AM EST TUE DEC 06 2016

NOTE: "FAIR" INDICATES FEW OR NO CLOUDS BELOW 12,000 FEET WITH NO
SIGNIFICANT WEATHER AND/OR OBSTRUCTIONS TO VISIBILITY.

FLZ001>010-012>015-112-114-115-061100-
PANHANDLE FLORIDA

CITY           SKY/WX    TMP DP  RH WIND       PRES   REMARKS
PENSACOLA      CLOUDY    72  68  87 SW15      29.70R
PENSACOLA NAS  CLOUDY   N/A N/A N/A W15G26    29.70R
MILTON NAS     CLOUDY    69  69 100 W9        29.69S
CRESTVIEW      CLOUDY    72  69  90 SW13G21   29.70S
DUKE FIELD     MOCLDY    72  70  93 SW12      29.69R
VALPARAISO     MOCLDY    72  71  94 SW8       29.70R
MARY ESTHER    MOCLDY    72  68  87 W13       29.69  FOG
PANAMA CITY    LGT RAIN  73  70  90 SW10G24   29.70F
TYNDALL AFB    HVY RAIN  73  72  94 SW20      29.73R FOG
APALACHICOLA   CLOUDY    74  73  97 SW13      29.74S

STATION/POSITION SKY/WX   TEMP    WIND        PRES    WAVE   SWELL
                          AIR SEA DIR/SP/G            HT/PER HT/PER
                          (F)     (DEG/KT/KT) (MB)    (FT/S) (FT/S)
30.1N   87.6W              71 70  250/ 25/ 33 1005.6R   5/ 7
29.2N   88.2W              70 75  260/ 21/ 27 1008.0
28.8N   86.0W              76 75              1007.3R   6/ 7
PANAMA CITY BEAC           72 68  230/ 13/ 16 1006.2F
TOWER C                    75     210/ 18/ 19 1008.1R
28.5N   84.5W              78 75  210/ 21/ 25 1008.1S   7/ 7

$$
FLZ011-016>038-118-127-128-134-139-239-061100-
NORTH FLORIDA

CITY           SKY/WX    TMP DP  RH WIND       PRES   REMARKS
MARIANNA       LGT RAIN  72  70  93 W17G29    29.69F FOG
TALLAHASSEE    CLOUDY    74  73  97 MISG      29.73F
PERRY          MOCLDY    73  71  95 S7        29.78S
CROSS CITY     TSTM      73  72  94 SW18G24   29.79F
LAKE CITY      TSTM      70  70 100 SW7       29.79F
GAINESVILLE    LGT RAIN  72  70  93 SE5       29.81F
WILLISTON      MOCLDY    75  73  94 S7        29.82F
PALATKA        CLOUDY    72  72 100 S5        29.83S
MAYPORT NAS    TSTM      70  68  93 S7        29.81F FOG
JACKSONVILLE   RAIN      71  71 100 S13       29.80F FOG
JAX NAS        TSTM      71  70  96 S6        29.82F
FERNANDINA BEA CLOUDY    73  72  94 S12       29.80F
ST AUGUSTINE   CLOUDY    73  70  88 CALM      29.83F

STATION/POSITION SKY/WX   TEMP    WIND        PRES    WAVE   SWELL
                          AIR SEA DIR/SP/G            HT/PER HT/PER
                          (F)     (DEG/KT/KT) (MB)    (FT/S) (FT/S)
SHELL POINT      NOT AVBL
KEATON BEACH               70     210/ 16/ 18 1008.5R
CEDAR KEY                  71     200/ 18/ 20 1010.0R
FERNANDINA                 71 68  170/  6/  9 1009.1F
30.7N   81.3W                 65                N/A     3/ 5
MAYPORT                    70 67  200/  8/ 10 1009.9F
31.4N   80.9W              67 65  170/ 14/ 16 1008.6F   3/ 5   2/ 8
ST AUGUSTINE               74 68  200/ 11/ 15 1010.4F

$$
FLZ040-043>046-052-053-057-058-063-144-061100-
INTERIOR CENTRAL FLORIDA

CITY           SKY/WX    TMP DP  RH WIND       PRES   REMARKS
OCALA          MOCLDY    73  70  88 S10       29.84S
THE VILLAGES     N/A     75  75 100 MISG      29.76R
LEESBURG       MOCLDY    74  69  85 S13       29.86F
SANFORD        MOCLDY    75  70  84 S13       29.86S
ORLANDO EXEC   CLOUDY    74  71  91 S12       29.88S
ORLANDO INTL   CLOUDY    74  70  87 S12       29.89R
KISSIMMEE      MOCLDY    74  71  91 S7        29.90S
WINTER HAVEN   CLOUDY    74  70  87 S13       29.90S
LAKELAND       CLOUDY    73  72  94 S14G20    29.89R
BARTOW         CLOUDY    73  73 100 S10       29.89R
OKEECHOBEE     CLOUDY    72  72 100 S9        29.93S

$$
FLZ041-047-054-059-064-141-147-061100-
EAST CENTRAL FLORIDA

CITY           SKY/WX    TMP DP  RH WIND       PRES   REMARKS
DAYTONA BEACH  PTCLDY    74  70  87 S12G18    29.85S
DELAND         MOCLDY    73  70  88 S10       29.86S
JFK SPACE CTR  CLOUDY    75  72  88 S12G21    29.87F
CAPE CANAVERAL CLOUDY    74  71  89 S15       29.87F
PATRICK AFB    CLEAR     75  72  91 S13       29.89F
MELBOURNE      CLOUDY    75  72  90 S12       29.89F
VERO BEACH     CLOUDY    74  71  91 S10       29.92S
FT PIERCE      CLOUDY    75  72  90 S6        29.92S
STUART         CLOUDY    77  72  83 S6        29.95R

STATION/POSITION SKY/WX   TEMP    WIND        PRES    WAVE   SWELL
                          AIR SEA DIR/SP/G            HT/PER HT/PER
                          (F)     (DEG/KT/KT) (MB)    (FT/S) (FT/S)
TRIDENT PIER               74 73  170/ 12/ 15 1011.9F
28.4N   80.5W                 72                N/A     3/ 5

$$
FLZ050-056-061-142-242-148-248-149-249-151-251-155-255-
160-260-061100-
WEST CENTRAL FLORIDA

CITY           SKY/WX    TMP DP  RH WIND       PRES   REMARKS
CRYSTAL RIVER  CLOUDY    73  72  94 S5        29.84S
INVERNESS      CLOUDY    73  72  94 S9        29.85S
BROOKSVILLE      N/A    N/A N/A N/A MISG        N/A
CLEARWATER AIR CLOUDY    73  72  94 S14G23    29.86S
ST PETE CLEARW MOCLDY    76  73  91 S20G28    29.86F
TAMPA INTL     MOCLDY    75  72  90 S13       29.87S
TAMPA EXEC     CLOUDY    77  72  83 S12       29.88S
PLANT CITY     CLOUDY    75  73  94 S13       29.90S
MACDILL AFB    PTCLDY    74  74 100 SW16      29.87S
PETER O KNIGHT CLOUDY    75  73  94 S8        29.88S
ST PETERSBURG  CLOUDY    74  73  97 SW20      29.85F
SARASOTA       CLOUDY    75  73  93 S16       29.87R
VENICE           N/A     75  75 100 S13       29.90R FOG

STATION/POSITION SKY/WX   TEMP    WIND        PRES    WAVE   SWELL
                          AIR SEA DIR/SP/G            HT/PER HT/PER
                          (F)     (DEG/KT/KT) (MB)    (FT/S) (FT/S)
CLEARWATER BEACH           75 70  170/ 17/ 24 1010.8F
MIDDLE TAMPA BAY           74     200/ 19/ 24 1011.5S
VENICE                     74 72  160/ 14/ 15 1012.0R

$$
FLZ066-069-070-075>078-162-262-165-265-061100-
SOUTHWEST FLORIDA AND KEYS

CITY           SKY/WX    TMP DP  RH WIND       PRES   REMARKS
PUNTA GORDA    CLOUDY    77  74  90 S17       29.91S
FT MYERS       CLOUDY    78  75  90 S9        29.90S
SOUTHWEST INTL CLOUDY    77  73  87 S12       29.90F
NAPLES         CLOUDY    78  74  87 S13G20    29.91F
MARCO ISLAND   CLOUDY    75  73  94 S9G16     29.93S
MARATHON       CLEAR     81  75  82 S7        29.96S
KEY WEST NAS   MOCLDY    77  74  90 S8        29.96R
KEY WEST INTL  CLEAR     79  76  90 S9        29.96S

STATION/POSITION SKY/WX   TEMP    WIND        PRES    WAVE   SWELL
                          AIR SEA DIR/SP/G            HT/PER HT/PER
                          (F)     (DEG/KT/KT) (MB)    (FT/S) (FT/S)
NAPLES                        73              1012.9F
26.0N   85.6W              80 78  200/ 17/ 19 1011.0S   6/ 8   2/11
DRY TORTUGAS               79     180/ 13/ 14 1013.4F
SAND KEY                   78     200/ 12/ 14 1014.8R
LONG KEY                   79 78  180/ 10/ 11 1014.8S
MOLASSES REEF              79 79  190/ 18/ 20 1014.8S

$$
FLZ067-068-071>074-168-172>174-061100-
SOUTHEAST FLORIDA

CITY           SKY/WX    TMP DP  RH WIND       PRES   REMARKS
W PALM BEACH   CLOUDY    76  72  87 S8        29.95R
FT LAUDER-EXEC PTCLDY    76  72  87 S7        29.95R
FT LAUDERDALE  MOCLDY    78  74  87 S10       29.94S
POMPANO BEACH  PTCLDY    78  73  84 S12       29.94S
PEMBROKE PINES CLOUDY    78  73  84 S9        29.96R
OPA LOCKA      PTCLDY    79  73  82 S12       29.95S
MIAMI          PTCLDY    77  74  90 S10       29.95S
WEST KENDALL   CLEAR     77  73  87 S8        29.95S
HOMESTEAD      CLEAR     77  76  99 S8        29.95S

STATION/POSITION SKY/WX   TEMP    WIND        PRES    WAVE   SWELL
                          AIR SEA DIR/SP/G            HT/PER HT/PER
                          (F)     (DEG/KT/KT) (MB)    (FT/S) (FT/S)
PORT EVERGLADES            78     180/  9/ 13 1014.1
VIRGINIA KEY               78 82  180/ 15/ 19 1014.6F
LAKE WORTH                 78 78  190/ 17/ 21 1013.3F
FOWEY ROCKS                79 77  170/ 23/ 25 1014.7F

$$





USA.gov is the U.S. government's official web portal to all federal, state and local government web resources and services.